HODOYOSHI-3

Last updated on Thu Jul 03 2025 00:02:30 GMT+0000 (Coordinated Universal Time)

1 40015U 14033F 25183.42430879 .00001001 00000+0 12497-3 0 9994 2 40015 97.6107 356.5618 0035027 67.3615 293.1298 14.84068942595729
UTC large
Height (km)
Speed (km/s)
/
Latitude / Longitude
Inclination (degrees)
Orbital Period (minutes)
Azimuth
Elevation
Range (km)
Doppler Factor

Next 0 passes for location: London (51.5072 / 0.1276)

Sorry there are no passes over London.